Regional Weather Roundup
Issued by NWS Charleston, WV

Home | Current Version | Previous Version | Text Only | Print | Product List | Glossary On
Versions: 1 2 3 4 5 6 7 8 9 10 11 12 13 14 15 16 17 18 19 20 21 22 23 24 25 26 27 28 29 30 31 32 33 34 35 36 37 38 39 40 41 42 43 44 45 46 47 48 49 50
000
ASUS41 KRLX 082210
RWRRLX
West Virginia Regional Weather Roundup
National Weather Service Charleston WV
500 PM EST THU DEC 08 2016

Note: "fair" indicates few or no clouds below 12,000 feet with no
significant weather and/or obstructions to visibility.

WVZ003-082300-
Northern Panhandle of West Virginia

CITY           SKY/WX    TMP DP  RH WIND       PRES   REMARKS
WHEELING       FLURRIES  25  16  68 W18       30.18R
$$

WVZ009-082300-
Northwest West Virginia

CITY           SKY/WX    TMP DP  RH WIND       PRES   REMARKS
PARKERSBURG    MOCLDY    31  15  52 W18G24    30.27R
$$

WVZ006-082300-
Western West Virginia

CITY           SKY/WX    TMP DP  RH WIND       PRES   REMARKS
HUNTINGTON     PTCLDY    34  13  41 W10       30.28R
$$

WVZ015-082300-
West Central West Virginia

CITY           SKY/WX    TMP DP  RH WIND       PRES   REMARKS
CHARLESTON     PTCLDY    34  14  43 W13G26    30.24R
$$

WVZ022-031-082300-
North Central West Virginia

CITY           SKY/WX    TMP DP  RH WIND       PRES   REMARKS
CLARKSBURG     MOCLDY    30  15  53 NW10G20   30.18R
MORGANTOWN     CLOUDY    29  12  49 W13G20    30.18R
$$

WVZ025-035-042-045-082300-
Southern West Virginia

CITY           SKY/WX    TMP DP  RH WIND       PRES   REMARKS
BECKLEY        CLEAR     31  11  43 W16G22    30.14R
LOGAN            N/A     32  14  47 W8G15     30.22R
BLUEFIELD      CLEAR     29   9  43 W16G30    30.13R
LEWISBURG      CLEAR     32  11  41 NW6       30.12R
$$

WVZ047-082300-
Northern Mountains of West Virginia

CITY           SKY/WX    TMP DP  RH WIND       PRES   REMARKS
ELKINS         PTCLDY    30  14  51 W16       30.12R
$$

WVZ052-082300-
Eastern Panhandle of West Virginia

CITY           SKY/WX    TMP DP  RH WIND       PRES   REMARKS
MARTINSBURG    CLEAR     38  13  35 W15       30.07R
PETERSBURG     PTCLDY    36  17  44 W16G23    30.13R
$$



USA.gov is the U.S. government's official web portal to all federal, state and local government web resources and services.